sat.trackr.live / text

‹ back to catalog

GSAT-11

NORAD 43824 · 2018-100B

PAYLOAD ACTIVE UNKNOWN

§ Identity

Operator
Country
IND
Launch date
2018-12-04
Launch site
FRGUI
Launch vehicle
Mass (kg)
RCS (m²)

Purposes: comms

External: N2YO · Heavens-Above · Gunter

§ Orbital elements

Epoch: 2026-05-25T04:05:45.234816Z

Period
1,436.10 min
Inclination
0.0807°
Eccentricity
0.0007684
Mean motion
1.00271799 rev/d
Perigee alt
35,754.2 km
Apogee alt
35,819.0 km
Semi-major
42,164.7 km
B*
0.0000e+0
RAAN
260.8426°
Arg perigee
179.6937°
Mean anomaly
297.6607°
Rev number
2,724

§ Raw data

GSAT-111 43824U 18100B   26145.17066244 -.00000079  00000+0  00000+0 0  99942 43824   0.0807 260.8426 0007684 179.6937 297.6607  1.00271799 27241

JSON: /api/v1/satellites/43824 · /tle

For live sub-satellite position, see the globe view (requires WebGL).

§ Visibility from observer

Set your observer location to see the next 7 days of passes ≥ 10°. The values pass through the URL so the page stays shareable.

No JS? Fill the form by hand. The geolocation button needs JavaScript.